Wind_Speed
19 18 17 16 15 15 15 15 17 17 17 17 16 15 13 13 13 11 10 10 10 10 11 11 11 12 13 14 16 17 18 19 21 21 22 23 24 25 27 29 30 31 33 34
19 19 19 18 15 16 16 17 18 19 19 18 17 17 15 14 14 13 12 12 12 13 13 14 14 14 15 16 18 19 20 21 22 23 24 25 26 28 29 30 32 33 34 36
20 18 19 18 17 18 19 20 19 22 22 21 20 18 16 15 17 15 13 13 14 14 15 16 17 17 18 19 20 21 22 23 24 25 27 27 28 29 31 32 34 35 36 37
20 20 19 17 18 19 21 21 22 23 24 24 22 21 18 17 17 15 14 14 15 16 17 18 19 20 21 22 23 23 24 25 26 27 28 29 31 32 33 34 35 36 37 38
21 21 19 18 20 21 21 22 22 22 23 23 23 22 20 19 17 17 16 16 18 19 19 20 21 22 23 24 25 26 27 28 29 30 31 32 33 34 35 36 37 37 38 38
23 22 21 19 20 22 23 22 22 23 24 24 24 24 24 22 19 19 19 20 21 22 22 23 24 24 25 26 27 28 29 30 32 32 33 35 36 37 38 39 39 39 40 40
23 23 21 20 20 20 21 20 22 23 23 24 23 24 23 21 20 20 22 23 24 25 25 25 26 26 27 29 30 31 31 32 34 35 36 37 38 39 40 41 41 41 41 41
25 24 21 21 20 19 19 19 19 20 21 22 21 21 21 22 23 23 24 25 25 26 27 28 29 30 31 32 33 34 35 35 36 37 39 39 40 41 42 42 43 43 43 43
26 24 23 23 21 20 20 20 19 19 19 21 22 22 21 22 24 25 26 27 27 28 29 30 31 32 33 34 35 36 37 38 39 40 42 43 43 44 44 44 45 45 45 44
27 27 24 24 23 23 22 20 20 20 22 21 20 20 22 23 25 26 28 29 30 31 32 32 34 35 35 36 38 39 40 41 42 43 44 45 45 46 46 47 47 47 46 47
29 28 28 27 26 25 24 24 23 23 22 22 22 23 24 25 27 28 29 30 32 32 33 34 36 36 37 39 40 41 42 43 44 46 47 47 48 48 49 48 49 50 49 49
30 30 30 28 26 25 25 24 23 24 24 24 25 26 27 27 28 29 30 31 33 34 35 36 38 39 40 42 42 43 45 46 47 48 49 50 50 50 51 51 52 52 51 50
30 30 29 27 27 26 25 25 25 26 27 27 27 28 29 29 30 31 32 33 35 36 38 39 40 41 43 44 45 46 48 49 50 51 52 52 53 53 53 53 53 53 53 52
28 29 29 29 28 28 28 29 29 30 30 30 31 31 32 33 33 34 35 36 37 38 40 41 42 43 44 46 47 49 50 51 52 53 54 55 55 55 56 55 54 54 54 54
27 27 28 29 30 31 30 30 30 30 31 32 33 34 35 36 36 37 38 39 40 41 42 43 44 45 46 48 49 50 52 53 54 55 56 57 57 58 58 58 57 57 56 55
25 25 27 28 29 29 29 31 32 33 33 34 35 36 37 38 39 40 41 42 43 44 45 46 47 48 49 50 51 52 54 55 56 57 58 58 59 59 60 60 60 59 58 56
26 27 27 27 28 29 30 32 33 35 36 37 38 38 39 40 41 42 43 44 45 46 47 48 49 50 52 53 54 55 56 57 58 58 59 60 60 61 61 61 61 59 57 55
26 25 26 26 28 29 31 33 34 36 37 39 40 41 42 43 44 45 46 46 47 48 50 51 52 53 54 55 56 57 58 58 59 60 60 61 61 61 61 60 58 57 54 51
26 26 27 28 30 32 34 35 36 38 39 41 42 43 44 45 46 47 48 49 50 51 52 53 54 55 56 57 58 59 59 60 60 60 60 60 59 58 56 54 53 51 48 45
29 30 32 33 34 35 36 38 39 41 42 43 44 45 46 47 48 49 51 52 52 53 54 55 56 56 57 57 58 58 58 58 58 57 57 55 54 52 51 48 46 43 40 37
31 33 34 35 37 38 40 41 42 43 45 46 47 48 49 49 50 52 52 53 54 54 55 55 55 55 55 55 55 55 55 54 53 52 51 49 48 46 43 40 36 33 31 29
36 37 38 39 40 42 43 44 45 46 47 48 49 50 51 51 52 52 53 53 53 53 52 52 51 51 51 51 50 50 49 49 48 46 45 43 41 38 35 32 28 26 24 23
39 41 42 43 45 46 47 47 48 49 50 50 50 51 51 51 51 50 50 49 49 48 47 46 46 46 46 46 46 46 45 44 43 41 39 37 34 31 29 25 22 20 20 19
43 44 46 47 48 48 49 49 50 50 50 49 48 48 48 47 47 46 45 44 43 42 42 41 42 42 43 42 42 41 40 39 37 35 33 30 27 25 22 20 17 16 14 14
47 48 49 49 49 49 49 48 48 47 46 45 44 44 43 42 41 40 40 39 38 38 38 39 39 40 39 39 38 37 36 34 32 29 26 23 20 19 17 14 12 10 9 9
47 48 48 48 47 46 45 44 43 43 41 40 39 38 37 37 37 36 36 35 35 36 36 37 37 36 36 35 35 33 32 30 27 23 21 19 16 13 10 8 5 5 5 6
44 44 44 43 42 41 40 40 39 38 36 35 34 34 34 34 33 33 32 32 33 34 34 33 33 32 32 30 29 28 25 23 21 19 16 13 10 7 4 2 2 2 3 4
Wind_Direction
287 285 281 279 270 263 261 262 258 261 265 273 280 283 286 292 300 302 306 307 306 302 299 297 293 288 287 287 288 290 291 293 296 298 300 302 303 304 306 309 310 311 313 314
282 277 276 275 269 264 262 260 261 263 267 273 277 279 284 289 294 297 298 298 297 295 292 290 289 286 285 284 285 287 289 291 294 296 298 300 303 304 306 308 309 311 312 313
279 276 279 276 266 262 261 259 261 264 268 273 273 276 282 283 284 287 289 287 288 283 282 286 287 287 285 285 285 287 289 291 293 295 297 299 302 304 306 307 308 310 311 312
282 282 279 275 261 258 261 263 264 266 267 269 269 273 270 278 276 278 280 280 283 282 280 283 286 287 287 287 287 289 290 292 293 295 297 299 301 303 305 307 307 309 310 310
281 283 279 272 267 261 262 263 267 270 271 271 269 267 267 274 271 272 279 285 288 286 284 284 285 286 287 288 288 289 291 292 294 295 296 297 299 302 304 305 306 308 309 310
277 280 279 277 269 266 266 270 273 276 275 272 270 268 266 268 270 272 280 288 290 288 285 286 286 286 288 288 288 289 290 292 293 295 296 297 298 300 302 304 305 306 307 309
278 279 279 277 272 268 269 275 280 282 278 275 271 271 269 271 279 279 283 286 286 287 285 285 287 288 290 290 289 288 289 291 293 294 295 296 298 300 301 303 305 306 307 308
281 281 279 285 280 277 280 286 290 290 286 281 279 278 281 281 281 282 286 286 284 285 285 285 286 287 288 289 288 289 290 292 292 294 295 296 298 300 301 302 303 305 305 306
282 286 285 287 285 286 290 292 292 292 290 289 285 281 283 284 283 284 285 287 285 285 285 285 285 286 287 288 288 290 291 292 293 294 295 296 297 299 300 301 302 302 303 304
280 283 286 290 290 289 288 291 293 294 293 292 291 289 289 288 287 286 286 285 285 285 284 286 286 285 285 286 287 289 290 291 292 293 295 295 296 298 299 299 300 301 302 303
279 283 287 289 289 288 290 294 294 293 293 291 294 295 294 291 289 287 286 286 286 286 286 286 286 286 287 288 288 289 290 291 292 293 294 294 295 296 297 297 297 298 299 300
279 281 283 285 286 286 289 290 292 292 292 294 296 295 294 292 291 289 288 287 287 287 288 288 288 288 289 290 290 290 290 291 291 292 292 292 293 293 294 295 295 296 296 296
277 280 281 282 283 284 285 288 292 293 294 294 294 294 293 292 292 290 289 289 289 288 289 289 289 289 290 290 290 290 290 290 290 290 291 291 291 291 292 292 293 293 293 293
276 278 279 280 281 282 284 287 290 292 294 295 295 294 294 293 293 292 292 292 291 291 291 290 290 290 290 290 290 290 290 290 290 290 290 291 291 291 291 291 291 291 291 291
272 276 280 281 281 282 286 289 293 294 295 295 295 294 294 294 294 294 293 293 292 292 292 292 292 292 292 291 291 291 291 291 291 291 291 291 291 291 291 290 290 289 288 288
272 274 279 282 283 284 288 291 293 294 294 294 293 293 294 294 294 294 294 294 294 294 294 294 294 293 293 293 293 292 292 292 291 291 291 291 290 290 290 289 288 288 287 286
271 272 277 281 284 287 289 290 291 292 292 293 293 294 295 295 295 295 296 296 296 296 296 296 296 295 295 294 294 294 293 293 292 292 291 291 290 290 289 288 288 287 285 284
274 277 280 283 285 287 289 290 290 291 292 293 294 295 295 296 296 297 297 297 298 298 298 297 297 297 297 296 296 295 295 295 294 293 292 292 291 291 290 289 288 286 285 283
288 287 286 287 289 289 289 290 291 292 293 294 295 296 296 297 298 298 298 299 299 299 299 299 298 298 298 298 297 297 297 296 295 295 294 293 293 292 291 290 288 286 283 279
285 285 287 288 288 288 289 290 291 292 294 295 296 296 297 298 299 299 300 300 300 300 300 300 299 299 299 299 299 299 298 298 297 296 296 295 295 294 292 291 288 285 280 275
285 284 286 287 287 287 288 289 291 293 294 296 296 297 297 298 299 299 300 300 300 300 301 300 300 300 300 301 301 301 301 301 300 299 298 298 297 296 294 291 287 283 278 272
282 284 286 287 288 288 289 291 293 294 295 296 297 298 298 299 299 300 300 300 300 301 301 301 301 301 303 303 304 304 304 304 303 302 302 301 300 298 296 290 284 279 275 269
284 285 287 288 289 290 291 292 294 295 296 297 298 298 298 299 299 300 300 300 301 301 302 303 303 304 306 307 307 307 307 307 306 305 304 302 300 298 296 290 283 275 269 263
285 287 289 290 291 292 293 295 296 297 297 298 298 298 298 299 299 300 301 302 303 304 305 306 307 309 310 310 311 311 311 311 310 308 307 304 301 299 294 287 280 274 263 254
285 287 289 291 293 294 296 297 297 297 297 298 298 298 299 299 300 302 303 304 305 306 307 309 310 311 312 313 313 313 314 314 314 312 311 308 306 304 299 292 282 268 258 248
285 287 289 291 293 295 295 295 296 296 297 297 297 298 299 300 301 303 304 305 307 308 309 311 312 313 314 314 315 316 316 317 317 316 314 313 310 307 302 294 275 255 240 229
288 289 291 292 294 294 294 295 295 296 296 296 297 298 300 301 302 303 305 307 309 310 311 312 315 317 319 320 321 323 323 324 325 324 323 323 321 319 316 286 230 227 227 223
Height
5855 5854 5853 5852 5851 5850 5850 5849 5849 5849 5849 5849 5849 5848 5848 5848 5848 5847 5847 5847 5847 5846 5845 5845 5845 5845 5844 5843 5842 5840 5839 5837 5835 5833 5830 5827 5824 5821 5818 5814 5811 5807 5802 5798
5851 5849 5848 5847 5847 5846 5845 5844 5844 5843 5843 5844 5844 5843 5842 5842 5843 5843 5843 5843 5842 5842 5841 5841 5840 5840 5839 5838 5837 5835 5833 5831 5829 5826 5824 5821 5818 5814 5811 5807 5803 5799 5795 5790
5845 5844 5843 5843 5842 5841 5840 5839 5839 5838 5839 5838 5838 5838 5837 5837 5838 5838 5838 5838 5838 5837 5836 5836 5835 5834 5833 5832 5830 5829 5827 5825 5822 5820 5817 5814 5810 5807 5803 5799 5795 5791 5787 5782
5839 5839 5838 5840 5836 5835 5835 5834 5834 5833 5832 5832 5833 5833 5832 5832 5833 5833 5833 5834 5833 5832 5831 5830 5829 5828 5827 5825 5824 5822 5820 5817 5815 5812 5809 5806 5802 5799 5795 5791 5787 5782 5778 5773
5832 5832 5832 5832 5831 5830 5829 5828 5828 5828 5827 5826 5826 5827 5827 5826 5827 5828 5828 5828 5828 5827 5826 5825 5823 5822 5820 5818 5816 5814 5812 5809 5807 5804 5800 5797 5793 5790 5786 5782 5778 5773 5768 5764
5826 5825 5826 5828 5826 5824 5825 5824 5824 5822 5821 5821 5821 5820 5820 5820 5821 5822 5822 5821 5821 5820 5819 5818 5816 5814 5813 5811 5808 5806 5804 5801 5798 5795 5791 5788 5784 5780 5776 5772 5768 5763 5758 5753
5819 5818 5819 5820 5819 5819 5820 5820 5818 5817 5816 5815 5814 5814 5813 5813 5814 5814 5814 5814 5813 5812 5811 5810 5808 5806 5804 5802 5800 5798 5795 5793 5789 5786 5782 5778 5774 5770 5766 5762 5757 5753 5748 5743
5813 5813 5815 5814 5813 5814 5814 5813 5812 5811 5810 5809 5807 5806 5806 5807 5807 5806 5806 5805 5804 5804 5802 5801 5799 5797 5795 5793 5790 5788 5785 5783 5779 5776 5772 5768 5764 5759 5755 5750 5746 5741 5737 5732
5808 5809 5807 5807 5807 5807 5806 5806 5806 5805 5804 5804 5801 5800 5799 5799 5798 5798 5797 5797 5796 5795 5793 5792 5790 5788 5786 5783 5780 5777 5775 5771 5768 5764 5760 5756 5752 5748 5743 5738 5734 5729 5725 5720
5800 5801 5801 5801 5800 5800 5800 5799 5799 5799 5798 5797 5795 5794 5793 5792 5791 5790 5789 5788 5787 5786 5784 5782 5779 5777 5775 5772 5769 5766 5763 5759 5755 5752 5748 5744 5739 5735 5731 5726 5721 5716 5712 5707
5793 5793 5793 5793 5793 5793 5792 5792 5792 5791 5790 5789 5788 5787 5786 5785 5784 5782 5781 5779 5777 5776 5774 5772 5769 5766 5764 5761 5757 5754 5750 5746 5742 5738 5734 5730 5726 5722 5717 5713 5708 5703 5699 5694
5787 5786 5786 5786 5785 5785 5785 5784 5784 5783 5782 5781 5780 5779 5778 5776 5775 5773 5771 5769 5767 5765 5762 5760 5757 5754 5751 5748 5744 5741 5737 5733 5729 5725 5721 5716 5712 5708 5703 5699 5694 5689 5684 5680
5779 5778 5778 5777 5777 5777 5777 5776 5776 5775 5774 5773 5772 5771 5769 5767 5765 5763 5761 5759 5756 5754 5751 5748 5745 5742 5738 5735 5731 5727 5723 5719 5715 5710 5706 5701 5697 5692 5689 5685 5679 5674 5669 5665
5772 5771 5770 5770 5770 5769 5769 5768 5767 5766 5765 5764 5763 5761 5759 5757 5755 5752 5750 5748 5745 5742 5739 5736 5732 5729 5725 5721 5717 5713 5708 5704 5699 5694 5690 5685 5680 5675 5671 5667 5663 5659 5654 5649
5765 5764 5763 5762 5761 5760 5759 5759 5758 5757 5756 5755 5753 5751 5748 5746 5744 5741 5738 5736 5732 5729 5726 5723 5719 5715 5711 5707 5702 5697 5692 5687 5682 5677 5672 5667 5662 5657 5652 5648 5644 5640 5636 5632
5757 5756 5755 5754 5752 5751 5750 5749 5748 5747 5746 5744 5742 5740 5738 5735 5732 5729 5726 5723 5720 5716 5712 5709 5705 5700 5696 5691 5686 5681 5676 5670 5665 5660 5654 5649 5643 5638 5633 5628 5624 5620 5617 5614
5748 5747 5747 5746 5745 5744 5743 5741 5739 5737 5735 5733 5731 5729 5726 5723 5720 5717 5713 5710 5706 5702 5698 5693 5689 5684 5679 5674 5669 5664 5658 5652 5647 5641 5635 5630 5624 5619 5613 5608 5604 5600 5597 5594
5739 5738 5738 5737 5737 5735 5734 5732 5730 5728 5725 5722 5720 5717 5714 5711 5707 5704 5700 5696 5692 5687 5682 5678 5673 5667 5662 5656 5651 5645 5639 5633 5627 5621 5615 5609 5603 5598 5592 5587 5583 5579 5577 5574
5730 5730 5729 5728 5727 5726 5724 5722 5719 5717 5714 5711 5708 5705 5701 5697 5694 5690 5686 5682 5677 5672 5667 5662 5656 5650 5644 5638 5632 5626 5619 5613 5607 5600 5594 5588 5582 5577 5572 5567 5563 5560 5558 5556
5723 5721 5720 5719 5717 5715 5713 5711 5708 5705 5702 5699 5696 5692 5688 5684 5680 5675 5671 5666 5661 5656 5651 5645 5639 5633 5626 5620 5613 5607 5600 5593 5587 5580 5574 5568 5563 5558 5553 5549 5545 5543 5541 5541
5713 5712 5710 5708 5706 5704 5701 5699 5696 5693 5689 5686 5682 5678 5674 5670 5665 5661 5656 5651 5646 5640 5634 5628 5622 5616 5609 5603 5596 5589 5582 5575 5568 5562 5556 5551 5546 5541 5536 5533 5530 5529 5528 5528
5703 5701 5699 5697 5695 5692 5689 5686 5683 5679 5676 5672 5668 5664 5660 5655 5651 5646 5640 5635 5630 5624 5618 5612 5606 5600 5594 5587 5580 5573 5566 5559 5553 5547 5541 5536 5531 5527 5523 5520 5519 5518 5518 5518
5691 5689 5687 5685 5682 5679 5676 5673 5669 5666 5662 5658 5654 5649 5645 5640 5636 5631 5626 5621 5615 5609 5604 5598 5592 5586 5580 5573 5566 5559 5553 5546 5539 5533 5528 5523 5519 5516 5513 5511 5509 5509 5510 5510
5678 5676 5673 5671 5668 5665 5662 5658 5655 5651 5648 5644 5639 5635 5630 5626 5621 5616 5611 5607 5601 5596 5591 5585 5580 5574 5568 5561 5554 5547 5541 5534 5528 5522 5517 5513 5509 5507 5504 5503 5502 5502 5503 5504
5666 5663 5660 5657 5654 5651 5648 5644 5641 5637 5634 5630 5625 5621 5617 5612 5608 5604 5600 5595 5590 5585 5580 5575 5569 5563 5557 5551 5544 5538 5531 5525 5519 5514 5509 5505 5503 5500 5499 5498 5497 5498 5499 5501
5654 5651 5647 5644 5641 5638 5635 5631 5628 5624 5621 5617 5613 5609 5605 5601 5597 5593 5589 5585 5581 5576 5571 5565 5560 5554 5548 5542 5535 5529 5523 5517 5512 5507 5503 5500 5498 5496 5495 5494 5494 5495 5497 5498
5640 5637 5634 5632 5629 5625 5622 5618 5615 5612 5609 5605 5602 5598 5595 5591 5587 5584 5580 5576 5572 5567 5562 5557 5552 5546 5540 5534 5528 5522 5517 5512 5507 5503 5500 5497 5495 5494 5493 5493 5494 5495 5496 5497